Monticello, KY

12:53 PM CST on February 12, 2016 (GMT -0600)
Wayne County

Weather History for KEKQ - June, 2013

Change the Weather History Date:

Sunday, June 30, 2013

  Actual Average Record
Temperature  
Mean Temperature 72 °F -  
Max Temperature 82 °F 86 °F 104 °F (2012)
Min Temperature 61 °F 63 °F 51 °F (2006)
Cooling Degree Days 6    
Growing Degree Days 22 (Base 50)    
Moisture  
Dew Point 65 °F    
Average Humidity 81    
Maximum Humidity 100    
Minimum Humidity 52    
Precipitation  
Precipitation 0.00 in - - ()
Sea Level Pressure  
Sea Level Pressure 29.78 in    
Wind  
Wind Speed 2 mph (WNW)    
Max Wind Speed 8 mph    
Max Gust Speed -    
Visibility 10 miles    
Events      
Averages and records for this station are not official NWS values.
T = Trace of Precipitation, MM = Missing Value Source: NWS Daily Summary

Daily Weather History Graph

Daily Weather History Graph

Search for Another Location

Airport or City:

Trip Planner

Search our weather history database for the weather conditions in past years. The results will help you decide how hot, cold, wet, or windy it might be!

Date:

Astronomy

Jun. 30, 2013 Rise Set
Actual Time 5:23 AM CDT 8:02 PM CDT
Civil Twilight 4:52 AM CDT 8:33 PM CDT
Nautical Twilight 4:14 AM CDT 9:11 PM CDT
Astronomical Twilight 3:32 AM CDT 9:54 PM CDT
Moon 12:14 AM CDT (6/30) 1:23 PM CDT (6/30)
Length of Visible Light 15h 40m
Length of Day
14h 39m
Last Quarter, 45% of the Moon is Illuminated
Jun 30
Last Quarter
Jul 8
New
Jul 15
First Quarter
Jul 22
Full
Jul 29
Last Quarter

Hourly Weather History & Observations

Time (CDT) Temp. Heat Index Dew Point Humidity Pressure Visibility Wind Dir Wind Speed Gust Speed Precip Events Conditions
12:56 AM 64.9 °F - 64.9 °F 100% 29.73 in 10.0 mi Calm Calm - N/A   Partly Cloudy
1:56 AM 63.0 °F - 63.0 °F 100% 29.71 in 10.0 mi Calm Calm - N/A   Clear
2:56 AM 63.9 °F - 63.9 °F 100% 29.70 in 10.0 mi Calm Calm - N/A   Scattered Clouds
3:56 AM 63.9 °F - 63.9 °F 100% 29.71 in 10.0 mi Calm Calm - N/A   Scattered Clouds
4:56 AM 63.0 °F - 63.0 °F 100% 29.73 in 10.0 mi Calm Calm - N/A   Partly Cloudy
5:56 AM 61.9 °F - 61.9 °F 100% 29.75 in 6.0 mi Calm Calm - N/A   Clear
6:56 AM 65.8 °F - 65.8 °F 100% 29.77 in 10.0 mi Calm Calm - N/A   Clear
7:30 AM 68.0 °F - 66.2 °F 94% 29.78 in 10.0 mi West 4.6 mph - N/A   Partly Cloudy
7:56 AM 70.0 °F - 65.8 °F 87% 29.78 in 10.0 mi WNW 8.1 mph - N/A   Mostly Cloudy
8:12 AM 69.8 °F - 66.2 °F 88% 29.79 in 10.0 mi West 6.9 mph - N/A   Scattered Clouds
8:56 AM 72.0 °F - 65.8 °F 81% 29.79 in 10.0 mi SSW 4.6 mph - N/A   Clear
9:56 AM 74.8 °F - 64.9 °F 71% 29.79 in 10.0 mi Calm Calm - N/A   Clear
10:56 AM 77.9 °F - 65.8 °F 66% 29.79 in 10.0 mi WNW 8.1 mph - N/A   Partly Cloudy
11:56 AM 79.9 °F - 63.9 °F 58% 29.79 in 10.0 mi WNW 6.9 mph - N/A   Partly Cloudy
12:56 PM 79.9 °F - 63.0 °F 56% 29.79 in 10.0 mi WSW 6.9 mph - N/A   Partly Cloudy
1:56 PM 81.0 °F 82.5 °F 63.9 °F 56% 29.78 in 10.0 mi NNW 8.1 mph - N/A   Scattered Clouds
2:56 PM 81.0 °F 82.5 °F 63.9 °F 56% 29.78 in 10.0 mi Variable 5.8 mph - N/A   Mostly Cloudy
3:56 PM 82.9 °F 84.2 °F 63.9 °F 52% 29.77 in 10.0 mi NW 6.9 mph - N/A   Clear
4:56 PM 81.9 °F 83.2 °F 63.9 °F 54% 29.78 in 10.0 mi NNW 8.1 mph - N/A   Partly Cloudy
5:56 PM 81.0 °F 82.5 °F 63.9 °F 56% 29.79 in 10.0 mi NNW 5.8 mph - N/A   Clear
6:56 PM 79.9 °F - 64.9 °F 60% 29.80 in 10.0 mi NNW 3.5 mph - N/A   Clear
7:56 PM 72.9 °F - 68.0 °F 85% 29.80 in 10.0 mi Calm Calm - N/A   Clear
8:56 PM 72.0 °F - 68.0 °F 87% 29.82 in 10.0 mi Calm Calm - N/A   Partly Cloudy
9:56 PM 70.0 °F - 68.9 °F 96% 29.83 in 10.0 mi Calm Calm - 0.00 in   Scattered Clouds
10:56 PM 68.9 °F - 68.9 °F 100% 29.83 in 10.0 mi Calm Calm - N/A   Partly Cloudy
11:56 PM 68.9 °F - 68.0 °F 97% 29.82 in 10.0 mi Calm Calm - N/A   Scattered Clouds